Regional Weather Roundup
Issued by NWS

Home | Current Version | Previous Version | Graphics & Text | Print | Product List | Glossary On
Versions: 1 2 3 4 5 6 7 8 9 10 11 12 13 14 15 16 17 18 19 20 21 22 23 24 25 26 27 28 29 30 31 32 33 34 35 36 37 38 39 40 41 42 43 44 45 46 47 48 49 50
872
ASUS45 KBOI 182210
RWRID

IDAHO REGIONAL WEATHER ROUNDUP
NATIONAL WEATHER SERVICE BOISE ID
300 PM MST THU JAN 18 2018

NOTE: "FAIR" INDICATES FEW OR NO CLOUDS BELOW 12000 FEET
WITH NO SIGNIFICANT WEATHER AND/OR OBSTRUCTIONS TO VISIBILITY

IDZ012-014-182300-
SOUTHWEST IDAHO


CITY           SKY/WX    TMP DP  RH WIND       PRES   REMARKS
BOISE          CLOUDY    47  36  65 N16       29.86R
CALDWELL       LGT RAIN  45  38  76 NW9       29.87F
MOUNTAIN HOME  PTSUNNY   53  37  54 E18       29.83F
$$

IDZ016-017-182300-
SOUTHCENTRAL IDAHO


CITY           SKY/WX    TMP DP  RH WIND       PRES   REMARKS
BURLEY         CLOUDY    52  32  46 S17G29    29.90F
JEROME         CLOUDY    46  34  62 NE15      29.91F
TWIN FALLS     CLOUDY    54  33  45 S21G29    29.88F
$$

IDZ019>023-182300-
SOUTHEAST IDAHO


CITY           SKY/WX    TMP DP  RH WIND       PRES   REMARKS
IDAHO FALLS    PTSUNNY   43  35  73 N3        29.97F
POCATELLO      CLOUDY    53  31  42 S14G22    29.94F
REXBURG        CLOUDY    41  31  67 NE5       29.96F
$$

IDZ006-010-011-018-031-032-182300-
CENTRAL IDAHO MOUNTAINS


CITY           SKY/WX    TMP DP  RH WIND       PRES   REMARKS
MCCALL         LGT SNOW  34  32  92 VRB5      29.82F FOG     WCI  30
HAILEY         PTSUNNY   39  30  70 NW5       29.95F
STANLEY          N/A     47  29  49 S12G26    29.85F
SALMON         CLOUDY    37  29  72 NE5       29.76F WCI  33
CHALLIS        CLOUDY    36  26  67 VRB3      29.81F
$$

IDZ002-004-006-007-026-182300-
NORTHERN IDAHO


CITY           SKY/WX    TMP DP  RH WIND       PRES   REMARKS
LEWISTON       LGT RAIN  44  37  76 NW5       29.88R
LOWELL           N/A     38  37  97 CALM      29.89R
COEUR D`ALENE  CLOUDY    40  37  89 SE5       29.80F
MULLAN PASS    SNOW      28  27  96 W8        29.72F VSB 1/4 WCI  20
$$




USA.gov is the U.S. government's official web portal to all federal, state and local government web resources and services.